JAT1407 UKHH-LDZA

Flight info

Callsign JAT1407
Flight time 2h 29m
Altitude 32000
Route SUTO1J LAPVA N164 POBUV T730 LONLA/N0465F320 DCT DODAR DCT VEBAL
Aircraft B722/M-SDFGHRWY/C

Departure

Time 2026-04-21 14:41
Airport Kharkiv International Airport (UKHH)

Arrival

Time 2026-04-21 17:10
Airport Zagreb Franjo Tuđman International Airport (LDZA)
Time Latitude Longitude Altitude Speed Heading
2026-04-21 14:21 49.92273 36.28080 488 ft 0 kts 237°
2026-04-21 14:32 49.92275 36.28087 495 ft 2 kts 235°
2026-04-21 14:32 49.92288 36.28109 483 ft 4 kts 218°
2026-04-21 14:32 49.92298 36.28118 493 ft 5 kts 198°
2026-04-21 14:33 49.92314 36.28119 489 ft 3 kts 157°
2026-04-21 14:33 49.92320 36.28114 493 ft 1 kts 147°
2026-04-21 14:36 49.92312 36.28123 488 ft 5 kts 139°
2026-04-21 14:37 49.92296 36.28189 495 ft 8 kts 75°
2026-04-21 14:37 49.92336 36.28248 500 ft 9 kts 32°
2026-04-21 14:37 49.92390 36.28275 502 ft 8 kts 360°
2026-04-21 14:37 49.92444 36.28246 502 ft 8 kts 315°
2026-04-21 14:38 49.92457 36.28150 502 ft 11 kts 266°
2026-04-21 14:38 49.92449 36.28021 500 ft 14 kts 259°
2026-04-21 14:38 49.92432 36.27866 500 ft 15 kts 262°
2026-04-21 14:38 49.92419 36.27688 494 ft 18 kts 263°
2026-04-21 14:39 49.92411 36.27502 496 ft 9 kts 281°
2026-04-21 14:39 49.92437 36.27420 500 ft 9 kts 314°
2026-04-21 14:39 49.92509 36.27385 504 ft 13 kts 15°
2026-04-21 14:39 49.92560 36.27526 505 ft 22 kts 81°
2026-04-21 14:40 49.92607 36.28065 509 ft 80 kts 82°
2026-04-21 14:40 49.92702 36.29202 518 ft 131 kts 83°
2026-04-21 14:40 49.92818 36.30793 591 ft 164 kts 84°
2026-04-21 14:40 49.92915 36.32599 1058 ft 171 kts 84°
2026-04-21 14:41 49.92982 36.34440 1691 ft 171 kts 83°
2026-04-21 14:41 49.93059 36.36323 2213 ft 180 kts 83°
2026-04-21 14:41 49.93111 36.38306 2817 ft 187 kts 85°
2026-04-21 14:41 49.93015 36.40354 3385 ft 197 kts 102°
2026-04-21 14:42 49.92372 36.42252 4027 ft 200 kts 130°
2026-04-21 14:42 49.91199 36.43451 4579 ft 209 kts 162°
2026-04-21 14:42 49.89746 36.43640 5189 ft 208 kts 182°
2026-04-21 14:42 49.88322 36.43644 5920 ft 204 kts 172°
2026-04-21 14:43 49.86939 36.44272 6341 ft 217 kts 153°
2026-04-21 14:43 49.85602 36.45632 6666 ft 243 kts 137°
2026-04-21 14:43 49.84236 36.47132 7643 ft 235 kts 157°
2026-04-21 14:43 49.82670 36.47720 8615 ft 236 kts 180°
2026-04-21 14:44 49.80977 36.47311 8815 ft 251 kts 205°
2026-04-21 14:44 49.79567 36.45834 9137 ft 244 kts 230°
2026-04-21 14:44 49.78703 36.43646 9488 ft 243 kts 253°
2026-04-21 14:44 49.78498 36.41070 9889 ft 243 kts 277°
2026-04-21 14:45 49.79036 36.38580 10387 ft 251 kts 302°
2026-04-21 14:45 49.80108 36.36445 11284 ft 250 kts 308°
2026-04-21 14:45 49.81251 36.34343 11903 ft 262 kts 309°
2026-04-21 14:45 49.82483 36.32188 12581 ft 269 kts 306°
2026-04-21 14:46 49.83440 36.29718 13460 ft 267 kts 290°
2026-04-21 14:46 49.83896 36.26902 14046 ft 276 kts 274°
2026-04-21 14:46 49.83883 36.23920 14566 ft 285 kts 266°
2026-04-21 14:46 49.83791 36.20798 15030 ft 294 kts 267°
2026-04-21 14:47 49.83596 36.17643 15466 ft 296 kts 258°
2026-04-21 14:47 49.83143 36.14522 15880 ft 297 kts 257°
2026-04-21 14:47 49.82754 36.11361 16312 ft 300 kts 262°
2026-04-21 14:47 49.82522 36.08139 16757 ft 302 kts 264°
2026-04-21 14:48 49.82302 36.04889 17213 ft 305 kts 263°
2026-04-21 14:48 49.82019 36.01615 17679 ft 307 kts 261°
2026-04-21 14:48 49.81667 35.98335 18152 ft 310 kts 259°
2026-04-21 14:48 49.81234 35.95055 18580 ft 312 kts 258°
2026-04-21 14:49 49.80797 35.91762 19002 ft 312 kts 258°
2026-04-21 14:49 49.80396 35.88497 19418 ft 313 kts 259°
2026-04-21 14:49 49.79990 35.85182 19848 ft 314 kts 258°
2026-04-21 14:49 49.79569 35.81861 20283 ft 315 kts 258°
2026-04-21 14:50 49.79282 35.79610 20580 ft 316 kts 258°
2026-04-21 14:50 49.78715 35.75138 21183 ft 324 kts 258°
2026-04-21 14:50 49.78280 35.71693 21654 ft 329 kts 258°
2026-04-21 14:50 49.77835 35.68196 22123 ft 332 kts 258°
2026-04-21 14:51 49.77386 35.64674 22622 ft 335 kts 258°
2026-04-21 14:51 49.76933 35.61132 23102 ft 337 kts 258°
2026-04-21 14:51 49.76476 35.57563 23576 ft 338 kts 257°
2026-04-21 14:51 49.76016 35.53986 23979 ft 340 kts 258°
2026-04-21 14:52 49.75558 35.50429 24384 ft 342 kts 258°
2026-04-21 14:52 49.75090 35.46806 24802 ft 344 kts 258°
2026-04-21 14:52 49.74617 35.43159 25220 ft 347 kts 258°
2026-04-21 14:52 49.74140 35.39486 25653 ft 349 kts 258°
2026-04-21 14:53 49.73659 35.35795 26080 ft 351 kts 258°
2026-04-21 14:53 49.73175 35.32084 26520 ft 352 kts 258°
2026-04-21 14:53 49.72687 35.28353 26918 ft 355 kts 258°
2026-04-21 14:53 49.72201 35.24648 27285 ft 357 kts 258°
2026-04-21 14:54 49.71704 35.20871 27608 ft 362 kts 258°
2026-04-21 14:54 49.71197 35.17028 27837 ft 368 kts 258°
2026-04-21 14:54 49.70681 35.13126 28070 ft 374 kts 258°
2026-04-21 14:54 49.70154 35.09155 28310 ft 380 kts 258°
2026-04-21 14:55 49.69618 35.05124 28556 ft 385 kts 258°
2026-04-21 14:55 49.69214 35.01008 28786 ft 391 kts 268°
2026-04-21 14:55 49.69406 34.96791 28946 ft 399 kts 277°
2026-04-21 14:56 49.70697 34.88344 28963 ft 404 kts 285°
2026-04-21 14:56 49.71989 34.79926 29074 ft 403 kts 281°
2026-04-21 14:56 49.72564 34.75695 29343 ft 402 kts 282°
2026-04-21 14:57 49.73210 34.71481 29667 ft 404 kts 283°
2026-04-21 14:57 49.73871 34.67244 29987 ft 406 kts 282°
2026-04-21 14:57 49.74496 34.62958 30259 ft 409 kts 282°
2026-04-21 14:57 49.75111 34.58647 30526 ft 411 kts 282°
2026-04-21 14:58 49.75739 34.54383 30797 ft 413 kts 282°
2026-04-21 14:58 49.76384 34.50051 31056 ft 415 kts 282°
2026-04-21 14:58 49.77022 34.45682 31337 ft 416 kts 282°
2026-04-21 14:58 49.77652 34.41311 31611 ft 417 kts 282°
2026-04-21 14:59 49.78289 34.36922 31884 ft 419 kts 282°
2026-04-21 14:59 49.79585 34.27979 31958 ft 432 kts 282°
2026-04-21 15:00 49.80887 34.18907 31956 ft 430 kts 282°
2026-04-21 15:00 49.82179 34.09869 31956 ft 430 kts 282°
2026-04-21 15:01 49.83459 34.00850 31959 ft 433 kts 282°
2026-04-21 15:01 49.84745 33.91741 31960 ft 431 kts 282°
2026-04-21 15:02 49.86016 33.82673 31956 ft 430 kts 282°
2026-04-21 15:02 49.87282 33.73597 31957 ft 431 kts 282°
2026-04-21 15:03 49.88539 33.64522 31961 ft 430 kts 282°
2026-04-21 15:03 49.89794 33.55405 31958 ft 433 kts 283°
2026-04-21 15:04 49.91048 33.46242 31965 ft 433 kts 282°
2026-04-21 15:04 49.92291 33.37107 31963 ft 433 kts 282°
2026-04-21 15:05 49.93528 33.27951 31960 ft 433 kts 282°
2026-04-21 15:05 49.95362 33.14267 31963 ft 432 kts 282°
2026-04-21 15:06 49.96580 33.05114 31967 ft 433 kts 282°
2026-04-21 15:06 49.97794 32.95925 31968 ft 433 kts 282°
2026-04-21 15:07 49.98999 32.86749 31972 ft 432 kts 282°
2026-04-21 15:07 50.00195 32.77578 31969 ft 434 kts 282°
2026-04-21 15:08 50.01387 32.68378 31970 ft 435 kts 282°
2026-04-21 15:08 50.02578 32.59130 31973 ft 436 kts 282°
2026-04-21 15:09 50.03755 32.49921 31969 ft 436 kts 282°
2026-04-21 15:09 50.04929 32.40681 31969 ft 434 kts 282°
2026-04-21 15:10 50.06092 32.31461 31967 ft 435 kts 282°
2026-04-21 15:10 50.07251 32.22211 31961 ft 436 kts 282°
2026-04-21 15:11 50.08409 32.12910 31975 ft 438 kts 282°
2026-04-21 15:11 50.09553 32.03652 31975 ft 437 kts 282°
2026-04-21 15:12 50.10695 31.94340 31976 ft 437 kts 282°
2026-04-21 15:12 50.11831 31.85028 31976 ft 437 kts 282°
2026-04-21 15:13 50.12959 31.75701 31969 ft 438 kts 282°
2026-04-21 15:13 50.14085 31.66332 31971 ft 439 kts 282°
2026-04-21 15:14 50.15196 31.57024 31975 ft 439 kts 282°
2026-04-21 15:14 50.16306 31.47646 31979 ft 439 kts 282°
2026-04-21 15:15 50.17408 31.38279 31977 ft 440 kts 282°
2026-04-21 15:15 50.18520 31.28753 31989 ft 449 kts 282°
2026-04-21 15:16 50.19628 31.19169 31994 ft 448 kts 282°
2026-04-21 15:16 50.20726 31.09645 31993 ft 448 kts 281°
2026-04-21 15:17 50.21814 31.00089 31989 ft 446 kts 281°
2026-04-21 15:17 50.22896 30.90547 31988 ft 446 kts 282°
2026-04-21 15:18 50.23972 30.80968 31981 ft 447 kts 281°
2026-04-21 15:18 50.24862 30.72993 31983 ft 448 kts 281°
2026-04-21 15:19 50.26096 30.61847 31986 ft 447 kts 281°
2026-04-21 15:19 50.27147 30.52263 31988 ft 448 kts 281°
2026-04-21 15:20 50.28193 30.42662 31990 ft 448 kts 281°
2026-04-21 15:20 50.29056 30.34676 31990 ft 448 kts 281°
2026-04-21 15:21 50.30091 30.25026 31994 ft 449 kts 281°
2026-04-21 15:21 50.31119 30.15367 31994 ft 449 kts 281°
2026-04-21 15:22 50.32129 30.05793 31998 ft 449 kts 281°
2026-04-21 15:22 50.33137 29.96153 31998 ft 449 kts 281°
2026-04-21 15:23 50.34141 29.86497 31995 ft 450 kts 281°
2026-04-21 15:23 50.35136 29.76815 31997 ft 450 kts 281°
2026-04-21 15:24 50.36124 29.67141 32003 ft 450 kts 281°
2026-04-21 15:24 50.37105 29.57448 32002 ft 449 kts 280°
2026-04-21 15:25 50.38068 29.47844 32007 ft 449 kts 280°
2026-04-21 15:25 50.39030 29.38167 32009 ft 450 kts 280°
2026-04-21 15:26 50.39987 29.28458 32011 ft 450 kts 280°
2026-04-21 15:26 50.40937 29.18731 32010 ft 451 kts 280°
2026-04-21 15:27 50.41880 29.09002 32017 ft 451 kts 280°
2026-04-21 15:27 50.42812 28.99286 32014 ft 451 kts 280°
2026-04-21 15:28 50.43732 28.89613 32019 ft 451 kts 280°
2026-04-21 15:28 50.44647 28.79887 32019 ft 450 kts 279°
2026-04-21 15:29 50.44670 28.70061 32023 ft 455 kts 259°
2026-04-21 15:29 50.43746 28.65315 32029 ft 457 kts 248°
2026-04-21 15:29 50.42301 28.60885 32031 ft 457 kts 241°
2026-04-21 15:30 50.38774 28.52623 32024 ft 459 kts 235°
2026-04-21 15:30 50.35324 28.44255 32030 ft 457 kts 239°
2026-04-21 15:31 50.31867 28.35874 32030 ft 458 kts 237°
2026-04-21 15:31 50.28375 28.27563 32027 ft 458 kts 238°
2026-04-21 15:32 50.24911 28.19196 32040 ft 457 kts 237°
2026-04-21 15:32 50.21425 28.10938 32029 ft 457 kts 238°
2026-04-21 15:33 50.17962 28.02654 32034 ft 456 kts 237°
2026-04-21 15:33 50.14463 27.94386 32027 ft 456 kts 238°
2026-04-21 15:34 50.10976 27.86124 32029 ft 456 kts 238°
2026-04-21 15:34 50.07496 27.77930 32034 ft 455 kts 237°
2026-04-21 15:35 50.03990 27.69692 32035 ft 457 kts 237°
2026-04-21 15:35 50.00475 27.61460 32039 ft 456 kts 237°
2026-04-21 15:36 49.96961 27.53253 32037 ft 456 kts 237°
2026-04-21 15:36 49.93773 27.44769 32030 ft 455 kts 246°
2026-04-21 15:37 49.91437 27.35668 32032 ft 451 kts 250°
2026-04-21 15:37 49.88879 27.26829 32030 ft 454 kts 246°
2026-04-21 15:38 49.86355 27.17863 32042 ft 453 kts 249°
2026-04-21 15:38 49.83821 27.08907 32044 ft 454 kts 247°
2026-04-21 15:39 49.81259 26.99981 32041 ft 453 kts 248°
2026-04-21 15:39 49.78720 26.91050 32046 ft 451 kts 247°
2026-04-21 15:40 49.76167 26.82210 32034 ft 450 kts 248°
2026-04-21 15:40 49.73624 26.73352 32039 ft 450 kts 247°
2026-04-21 15:41 49.71072 26.64557 32038 ft 451 kts 248°
2026-04-21 15:41 49.68505 26.55703 32035 ft 452 kts 247°
2026-04-21 15:42 49.65917 26.46837 32041 ft 451 kts 247°
2026-04-21 15:42 49.63347 26.38047 32041 ft 449 kts 247°
2026-04-21 15:43 49.60769 26.29267 32042 ft 449 kts 247°
2026-04-21 15:43 49.58182 26.20498 32043 ft 449 kts 247°
2026-04-21 15:44 49.55587 26.11717 32046 ft 450 kts 247°
2026-04-21 15:44 49.52988 26.02957 32043 ft 449 kts 247°
2026-04-21 15:45 49.50393 25.94262 32041 ft 446 kts 247°
2026-04-21 15:45 49.47811 25.85630 32041 ft 450 kts 247°
2026-04-21 15:46 49.45002 25.77037 31943 ft 451 kts 243°
2026-04-21 15:46 49.42026 25.68596 31802 ft 447 kts 246°
2026-04-21 15:47 49.40841 25.64200 31912 ft 444 kts 252°
2026-04-21 15:47 49.39840 25.59701 32056 ft 446 kts 253°
2026-04-21 15:47 49.37484 25.50857 32058 ft 447 kts 245°
2026-04-21 15:48 49.34669 25.42437 32057 ft 446 kts 247°
2026-04-21 15:48 49.32166 25.33744 32060 ft 446 kts 246°
2026-04-21 15:49 49.29458 25.25196 32065 ft 446 kts 246°
2026-04-21 15:49 49.26854 25.16567 32052 ft 447 kts 246°
2026-04-21 15:50 49.24174 25.07971 32046 ft 445 kts 246°
2026-04-21 15:50 49.21540 24.99415 32048 ft 445 kts 246°
2026-04-21 15:51 49.18874 24.90864 32047 ft 445 kts 246°
2026-04-21 15:51 49.16218 24.82329 32051 ft 445 kts 246°
2026-04-21 15:52 49.13563 24.73851 32050 ft 445 kts 246°
2026-04-21 15:52 49.10889 24.65330 32048 ft 443 kts 246°
2026-04-21 15:53 49.08223 24.56870 32046 ft 442 kts 246°
2026-04-21 15:53 49.05551 24.48417 32047 ft 444 kts 246°
2026-04-21 15:54 49.02860 24.39931 32052 ft 444 kts 246°
2026-04-21 15:54 49.00166 24.31467 32053 ft 444 kts 246°
2026-04-21 15:55 48.97480 24.23057 32041 ft 444 kts 246°
2026-04-21 15:55 48.94783 24.14640 32064 ft 442 kts 246°
2026-04-21 15:56 48.92085 24.06245 32061 ft 442 kts 246°
2026-04-21 15:56 48.89380 23.97856 32066 ft 442 kts 246°
2026-04-21 15:57 48.86667 23.89473 32056 ft 442 kts 246°
2026-04-21 15:57 48.83949 23.81102 32053 ft 442 kts 246°
2026-04-21 15:58 48.81226 23.72743 32065 ft 439 kts 246°
2026-04-21 15:58 48.78525 23.64479 32060 ft 440 kts 246°
2026-04-21 15:59 48.75801 23.56172 32061 ft 439 kts 246°
2026-04-21 15:59 48.73072 23.47878 32060 ft 440 kts 245°
2026-04-21 16:00 48.70340 23.39598 32053 ft 439 kts 246°
2026-04-21 16:00 48.67598 23.31320 32053 ft 440 kts 245°
2026-04-21 16:01 48.64848 23.23041 32048 ft 440 kts 245°
2026-04-21 16:01 48.62091 23.14771 32042 ft 441 kts 246°
2026-04-21 16:02 48.59320 23.06482 32037 ft 442 kts 245°
2026-04-21 16:02 48.56563 22.98264 32041 ft 441 kts 245°
2026-04-21 16:03 48.53783 22.90002 32028 ft 440 kts 245°
2026-04-21 16:03 48.51004 22.81773 32026 ft 440 kts 245°
2026-04-21 16:04 48.48221 22.73552 32024 ft 440 kts 245°
2026-04-21 16:04 48.45451 22.65401 32024 ft 440 kts 245°
2026-04-21 16:05 48.42657 22.57205 32022 ft 440 kts 245°
2026-04-21 16:05 48.39855 22.49012 32026 ft 439 kts 245°
2026-04-21 16:06 48.37054 22.40845 32024 ft 439 kts 245°
2026-04-21 16:06 48.34244 22.32685 32026 ft 439 kts 245°
2026-04-21 16:07 48.31238 22.24689 32027 ft 440 kts 241°
2026-04-21 16:07 48.28649 22.18110 32027 ft 439 kts 243°
2026-04-21 16:08 48.23586 22.04908 32029 ft 437 kts 242°
2026-04-21 16:09 48.21035 21.98290 32030 ft 438 kts 243°
2026-04-21 16:09 48.17973 21.90398 32032 ft 438 kts 242°
2026-04-21 16:10 48.14905 21.82514 32029 ft 438 kts 242°
2026-04-21 16:10 48.11849 21.74683 32030 ft 438 kts 242°
2026-04-21 16:11 48.08773 21.66824 32039 ft 435 kts 242°
2026-04-21 16:11 48.05703 21.58999 32037 ft 436 kts 242°
2026-04-21 16:12 48.02630 21.51180 32034 ft 436 kts 242°
2026-04-21 16:12 47.99561 21.43433 32035 ft 436 kts 242°
2026-04-21 16:13 47.96478 21.35632 32037 ft 436 kts 242°
2026-04-21 16:13 47.93393 21.27873 32041 ft 433 kts 242°
2026-04-21 16:14 47.90311 21.20129 32039 ft 434 kts 242°
2026-04-21 16:14 47.87241 21.12445 32040 ft 434 kts 242°
2026-04-21 16:15 47.84146 21.04718 32040 ft 434 kts 242°
2026-04-21 16:15 47.81051 20.97013 32038 ft 434 kts 242°
2026-04-21 16:16 47.77954 20.89328 32037 ft 432 kts 242°
2026-04-21 16:16 47.74858 20.81662 32039 ft 432 kts 242°
2026-04-21 16:17 47.71754 20.74002 32036 ft 432 kts 242°
2026-04-21 16:17 47.68664 20.66396 32036 ft 432 kts 242°
2026-04-21 16:18 47.65548 20.58749 32037 ft 432 kts 242°
2026-04-21 16:18 47.62434 20.51128 32031 ft 432 kts 242°
2026-04-21 16:19 47.59309 20.43501 32031 ft 432 kts 242°
2026-04-21 16:19 47.56183 20.35893 32031 ft 432 kts 241°
2026-04-21 16:20 47.53052 20.28294 32036 ft 432 kts 241°
2026-04-21 16:20 47.49916 20.20705 32032 ft 432 kts 241°
2026-04-21 16:21 47.46797 20.13179 32039 ft 431 kts 241°
2026-04-21 16:21 47.43655 20.05614 32036 ft 431 kts 241°
2026-04-21 16:22 47.40505 19.98055 32037 ft 431 kts 241°
2026-04-21 16:22 47.37354 19.90516 32042 ft 431 kts 241°
2026-04-21 16:23 47.34197 19.82978 32038 ft 433 kts 241°
2026-04-21 16:23 47.31034 19.75452 32044 ft 431 kts 241°
2026-04-21 16:24 47.27888 19.67983 32047 ft 432 kts 241°
2026-04-21 16:24 47.24719 19.60481 32048 ft 432 kts 241°
2026-04-21 16:25 47.21528 19.52977 32051 ft 432 kts 240°
2026-04-21 16:25 47.17893 19.45910 32054 ft 435 kts 232°
2026-04-21 16:26 47.14124 19.38967 32058 ft 433 kts 237°
2026-04-21 16:26 47.10471 19.31920 32057 ft 434 kts 234°
2026-04-21 16:27 47.06743 19.25006 32058 ft 434 kts 235°
2026-04-21 16:27 47.03044 19.17988 32052 ft 436 kts 234°
2026-04-21 16:28 46.99302 19.11024 32058 ft 433 kts 235°
2026-04-21 16:28 46.95589 19.04056 32058 ft 434 kts 235°
2026-04-21 16:29 46.91857 18.97116 32054 ft 434 kts 235°
2026-04-21 16:29 46.88132 18.90180 32055 ft 434 kts 235°
2026-04-21 16:30 46.84417 18.83300 32061 ft 430 kts 235°
2026-04-21 16:30 46.80714 18.76441 32054 ft 430 kts 235°
2026-04-21 16:31 46.76999 18.69588 32056 ft 430 kts 235°
2026-04-21 16:31 46.73275 18.62728 31734 ft 431 kts 235°
2026-04-21 16:31 46.71430 18.59345 31361 ft 421 kts 235°
2026-04-21 16:32 46.69623 18.56032 30950 ft 415 kts 235°
2026-04-21 16:32 46.67842 18.52764 30581 ft 410 kts 235°
2026-04-21 16:32 46.66077 18.49527 30213 ft 407 kts 235°
2026-04-21 16:32 46.64323 18.46322 29779 ft 403 kts 235°
2026-04-21 16:33 46.62600 18.43175 29347 ft 401 kts 235°
2026-04-21 16:33 46.60864 18.40006 28917 ft 399 kts 235°
2026-04-21 16:33 46.59137 18.36857 28495 ft 397 kts 235°
2026-04-21 16:33 46.57413 18.33721 28080 ft 395 kts 235°
2026-04-21 16:34 46.55702 18.30609 27667 ft 393 kts 235°
2026-04-21 16:34 46.53998 18.27515 27265 ft 391 kts 235°
2026-04-21 16:34 46.52304 18.24442 26849 ft 388 kts 235°
2026-04-21 16:34 46.50620 18.21386 26456 ft 387 kts 234°
2026-04-21 16:35 46.48942 18.18349 26067 ft 386 kts 234°
2026-04-21 16:35 46.47264 18.15316 25683 ft 384 kts 234°
2026-04-21 16:35 46.45591 18.12292 25309 ft 383 kts 234°
2026-04-21 16:35 46.43922 18.09281 24940 ft 382 kts 234°
2026-04-21 16:36 46.42275 18.06313 24585 ft 381 kts 233°
2026-04-21 16:36 46.40614 18.03321 24214 ft 380 kts 233°
2026-04-21 16:36 46.38956 18.00341 23856 ft 379 kts 233°
2026-04-21 16:36 46.37302 17.97368 23463 ft 378 kts 233°
2026-04-21 16:37 46.35659 17.94420 23036 ft 374 kts 233°
2026-04-21 16:37 46.34028 17.91496 22613 ft 372 kts 233°
2026-04-21 16:37 46.32408 17.88593 22202 ft 370 kts 233°
2026-04-21 16:37 46.30816 17.85744 21799 ft 368 kts 233°
2026-04-21 16:38 46.29210 17.82876 21396 ft 366 kts 233°
2026-04-21 16:38 46.27612 17.80023 21000 ft 364 kts 233°
2026-04-21 16:38 46.26024 17.77190 20610 ft 362 kts 233°
2026-04-21 16:38 46.24441 17.74368 20219 ft 360 kts 233°
2026-04-21 16:39 46.22866 17.71565 19838 ft 358 kts 233°
2026-04-21 16:39 46.21300 17.68781 19461 ft 356 kts 233°
2026-04-21 16:39 46.19748 17.66024 19091 ft 351 kts 233°
2026-04-21 16:39 46.18211 17.63295 18714 ft 350 kts 233°
2026-04-21 16:40 46.16678 17.60575 18354 ft 349 kts 233°
2026-04-21 16:40 46.15146 17.57865 17938 ft 347 kts 233°
2026-04-21 16:40 46.13643 17.55206 17530 ft 345 kts 233°
2026-04-21 16:40 46.12132 17.52533 17124 ft 343 kts 233°
2026-04-21 16:41 46.11116 17.50739 16848 ft 341 kts 233°
2026-04-21 16:41 46.09130 17.47235 16321 ft 339 kts 233°
2026-04-21 16:41 46.07657 17.44641 15928 ft 329 kts 234°
2026-04-21 16:41 46.06219 17.42109 15526 ft 324 kts 234°
2026-04-21 16:42 46.04796 17.39600 15141 ft 323 kts 234°
2026-04-21 16:42 46.03377 17.37105 14759 ft 320 kts 234°
2026-04-21 16:42 46.01966 17.34629 14392 ft 319 kts 234°
2026-04-21 16:42 46.00566 17.32172 14027 ft 317 kts 234°
2026-04-21 16:43 45.99226 17.29678 13624 ft 312 kts 242°
2026-04-21 16:43 45.98226 17.26941 13217 ft 308 kts 250°
2026-04-21 16:43 45.97471 17.24073 12813 ft 306 kts 253°
2026-04-21 16:43 45.96729 17.21202 12417 ft 306 kts 251°
2026-04-21 16:44 45.95902 17.18421 12026 ft 306 kts 249°
2026-04-21 16:44 45.95049 17.15617 11642 ft 306 kts 250°
2026-04-21 16:44 45.94232 17.12800 11261 ft 305 kts 251°
2026-04-21 16:44 45.93425 17.09978 10925 ft 303 kts 250°
2026-04-21 16:45 45.92616 17.07212 10650 ft 299 kts 250°
2026-04-21 16:45 45.91809 17.04468 10377 ft 298 kts 250°
2026-04-21 16:45 45.91011 17.01735 10107 ft 297 kts 250°
2026-04-21 16:45 45.90211 16.98993 9797 ft 297 kts 250°
2026-04-21 16:46 45.89410 16.96264 9504 ft 296 kts 250°
2026-04-21 16:46 45.88610 16.93539 9220 ft 295 kts 250°
2026-04-21 16:46 45.87814 16.90827 8922 ft 295 kts 250°
2026-04-21 16:46 45.87020 16.88126 8630 ft 294 kts 249°
2026-04-21 16:47 45.86234 16.85457 8343 ft 293 kts 250°
2026-04-21 16:47 45.85442 16.82770 8064 ft 292 kts 249°
2026-04-21 16:47 45.84656 16.80106 8048 ft 289 kts 249°
2026-04-21 16:47 45.83870 16.77446 8047 ft 290 kts 249°
2026-04-21 16:48 45.83082 16.74777 8045 ft 290 kts 249°
2026-04-21 16:48 45.82292 16.72108 8047 ft 292 kts 249°
2026-04-21 16:48 45.81497 16.69428 8048 ft 292 kts 250°
2026-04-21 16:48 45.80770 16.66712 8005 ft 290 kts 258°
2026-04-21 16:49 45.80600 16.63874 7987 ft 285 kts 275°
2026-04-21 16:49 45.80811 16.61051 7997 ft 284 kts 282°
2026-04-21 16:49 45.81192 16.58274 7997 ft 284 kts 283°
2026-04-21 16:49 45.81546 16.55484 7996 ft 285 kts 281°
2026-04-21 16:50 45.81833 16.52714 7997 ft 284 kts 280°
2026-04-21 16:50 45.82125 16.49917 7998 ft 284 kts 281°
2026-04-21 16:50 45.82440 16.47115 7999 ft 284 kts 281°
2026-04-21 16:50 45.82753 16.44330 7998 ft 277 kts 281°
2026-04-21 16:51 45.83030 16.41670 7973 ft 265 kts 279°
2026-04-21 16:51 45.82913 16.39037 7981 ft 267 kts 259°
2026-04-21 16:51 45.82196 16.36572 7996 ft 271 kts 239°
2026-04-21 16:51 45.81034 16.34425 8006 ft 273 kts 230°
2026-04-21 16:52 45.79701 16.32484 8028 ft 273 kts 226°
2026-04-21 16:52 45.78352 16.30541 7998 ft 276 kts 227°
2026-04-21 16:52 45.77485 16.29210 7994 ft 276 kts 229°
2026-04-21 16:52 45.75739 16.26513 7928 ft 278 kts 228°
2026-04-21 16:53 45.74423 16.24517 7698 ft 278 kts 228°
2026-04-21 16:53 45.73095 16.22494 7445 ft 279 kts 228°
2026-04-21 16:53 45.71780 16.20480 7166 ft 274 kts 228°
2026-04-21 16:53 45.70485 16.18502 6882 ft 270 kts 227°
2026-04-21 16:54 45.69208 16.16555 6603 ft 266 kts 227°
2026-04-21 16:54 45.67947 16.14633 6344 ft 262 kts 227°
2026-04-21 16:54 45.66710 16.12748 6120 ft 257 kts 227°
2026-04-21 16:54 45.65509 16.10921 5915 ft 247 kts 227°
2026-04-21 16:55 45.64356 16.09167 5683 ft 237 kts 227°
2026-04-21 16:55 45.63244 16.07477 5445 ft 231 kts 227°
2026-04-21 16:55 45.62520 16.06376 5292 ft 228 kts 227°
2026-04-21 16:55 45.61096 16.04213 4988 ft 223 kts 227°
2026-04-21 16:56 45.60036 16.02605 4754 ft 221 kts 227°
2026-04-21 16:56 45.58983 16.01007 4547 ft 221 kts 227°
2026-04-21 16:56 45.57931 15.99414 4333 ft 220 kts 226°
2026-04-21 16:56 45.56883 15.97827 4124 ft 218 kts 226°
2026-04-21 16:57 45.55856 15.96271 3933 ft 211 kts 227°
2026-04-21 16:57 45.55194 15.95269 3795 ft 208 kts 226°
2026-04-21 16:57 45.54206 15.93775 3587 ft 206 kts 226°
2026-04-21 16:57 45.53222 15.92289 3379 ft 206 kts 226°
2026-04-21 16:58 45.52241 15.90808 3170 ft 205 kts 226°
2026-04-21 16:58 45.51259 15.89326 2961 ft 206 kts 226°
2026-04-21 16:58 45.50281 15.87847 2755 ft 204 kts 227°
2026-04-21 16:58 45.49542 15.86141 2520 ft 203 kts 255°
2026-04-21 16:59 45.49398 15.84167 2307 ft 199 kts 279°
2026-04-21 16:59 45.49822 15.82340 2108 ft 192 kts 304°
2026-04-21 16:59 45.50665 15.80908 2091 ft 189 kts 319°
2026-04-21 16:59 45.51625 15.79633 2099 ft 189 kts 321°
2026-04-21 17:00 45.52601 15.78368 2097 ft 189 kts 320°
2026-04-21 17:00 45.53563 15.77078 2097 ft 190 kts 320°
2026-04-21 17:00 45.54198 15.76224 2092 ft 190 kts 319°
2026-04-21 17:00 45.55543 15.74587 2081 ft 192 kts 328°
2026-04-21 17:01 45.56623 15.73452 2082 ft 190 kts 327°
2026-04-21 17:01 45.57581 15.72196 2042 ft 193 kts 304°
2026-04-21 17:01 45.57776 15.70336 2073 ft 199 kts 255°
2026-04-21 17:01 45.56928 15.68793 2081 ft 201 kts 205°
2026-04-21 17:02 45.55574 15.68491 2077 ft 196 kts 160°
2026-04-21 17:02 45.54559 15.69600 2093 ft 183 kts 112°
2026-04-21 17:02 45.54522 15.71324 2104 ft 181 kts 63°
2026-04-21 17:02 45.55144 15.72855 2115 ft 178 kts 66°
2026-04-21 17:03 45.55289 15.74601 2116 ft 179 kts 85°
2026-04-21 17:03 45.55346 15.76363 2102 ft 176 kts 85°
2026-04-21 17:03 45.55642 15.78062 2095 ft 178 kts 66°
2026-04-21 17:03 45.56237 15.79601 2088 ft 177 kts 50°
2026-04-21 17:04 45.57107 15.80840 2096 ft 176 kts 43°
2026-04-21 17:04 45.57931 15.82023 2064 ft 163 kts 47°
2026-04-21 17:04 45.58683 15.83199 2084 ft 160 kts 46°
2026-04-21 17:04 45.59459 15.84352 2082 ft 162 kts 46°
2026-04-21 17:05 45.60224 15.85534 2092 ft 163 kts 47°
2026-04-21 17:05 45.61007 15.86697 2084 ft 163 kts 46°
2026-04-21 17:05 45.61772 15.87881 2088 ft 160 kts 47°
2026-04-21 17:05 45.62526 15.88998 2067 ft 149 kts 46°
2026-04-21 17:06 45.63228 15.90087 2075 ft 148 kts 47°
2026-04-21 17:06 45.63929 15.91125 2101 ft 140 kts 47°
2026-04-21 17:06 45.64581 15.92139 2089 ft 140 kts 47°
2026-04-21 17:06 45.65262 15.93146 2088 ft 139 kts 46°
2026-04-21 17:07 45.65929 15.94187 2085 ft 143 kts 47°
2026-04-21 17:07 45.66617 15.95206 2088 ft 143 kts 46°
2026-04-21 17:07 45.67249 15.96189 2039 ft 128 kts 47°
2026-04-21 17:07 45.67875 15.97114 1933 ft 129 kts 46°
2026-04-21 17:08 45.68466 15.98038 1755 ft 125 kts 47°
2026-04-21 17:08 45.69077 15.98973 1541 ft 130 kts 46°
2026-04-21 17:08 45.69707 15.99906 1357 ft 134 kts 46°
2026-04-21 17:08 45.70341 16.00875 1190 ft 133 kts 47°
2026-04-21 17:09 45.71628 16.02919 814 ft 139 kts 42°
2026-04-21 17:09 45.72282 16.03848 641 ft 131 kts 44°
2026-04-21 17:09 45.72926 16.04805 493 ft 138 kts 45°
2026-04-21 17:10 45.73582 16.05792 367 ft 126 kts 45°
2026-04-21 17:10 45.74024 16.06462 364 ft 56 kts 47°
2026-04-21 17:10 45.74238 16.06787 364 ft 41 kts 46°
2026-04-21 17:10 45.74431 16.07081 361 ft 40 kts 47°
2026-04-21 17:11 45.74615 16.07362 361 ft 33 kts 47°
2026-04-21 17:11 45.74669 16.07496 363 ft 12 kts 103°
2026-04-21 17:11 45.74649 16.07543 362 ft 0 kts 131°
2026-04-21 17:13 45.74637 16.07562 366 ft 5 kts 133°
2026-04-21 17:13 45.74614 16.07595 362 ft 5 kts 135°
2026-04-21 17:13 45.74586 16.07634 362 ft 8 kts 136°
2026-04-21 17:14 45.74531 16.07710 362 ft 13 kts 137°
2026-04-21 17:14 45.74463 16.07800 366 ft 13 kts 137°
2026-04-21 17:14 45.74403 16.07880 363 ft 10 kts 140°
2026-04-21 17:14 45.74346 16.07933 365 ft 10 kts 138°
2026-04-21 17:15 45.74313 16.07975 365 ft 3 kts 137°
2026-04-21 17:15 45.74299 16.07995 363 ft 0 kts 137°
2026-04-21 17:15 45.74297 16.07997 363 ft 0 kts 137°